Location: Unspecified
(0.0000°N, 0.0000°E)
Time: 10:07:19
(UTC+00:00)

Courier 1B Rocket - Pass Details

Date: 26 May 2026
Orbit: 920 x 1201 km, 28.2° (Epoch: 9 June)

Event Time Altitude Azimuth Distance (km) Brightness Sun altitude
Rises 11:37:33 0° 295° (WNW) 3,558 8.0 68.3°
Reaches altitude 10° 11:40:07 10° 293° (WNW) 2,633 7.5 68.4°
Maximum altitude 11:46:25 70° 210° (SSW) 1,021 6.1 68.7°
Drops below altitude 10° 11:53:09 10° 127° (SE) 2,798 7.4 68.8°
Sets 11:55:57 0° 124° (SE) 3,795 8.0 68.8°
